Location: Constantia
(34.0183°S, 18.4411°E)
Time: 06:04:26
(UTC+00:00)

Cosmos 1452 Rocket - Pass Details

Date: 17 February 2020
Orbit: 767 x 775 km, 74.1° (Epoch: 09 April)

Event Time Altitude Azimuth Distance (km) Brightness Sun altitude
Exits shadow 02:58:23 18° 342° (NNW) 1,822 5.0 -17.0°
Maximum altitude 03:02:21 85° 253° (WSW) 788 3.5 -16.3°
Drops below altitude 10° 03:07:43 10° 164° (SSE) 2,347 6.6 -15.3°
Sets 03:10:07 0° 163° (SSE) 3,283 7.4 -14.9°
